Regional Weather Roundup
Issued by NWS

Home | Current Version | Previous Version | Text Only | Print | Product List | Glossary Off
Versions: 1 2 3 4 5 6 7 8 9 10 11 12 13 14 15 16 17 18 19 20 21 22 23 24 25 26 27 28 29 30 31 32 33 34 35 36 37 38 39 40 41 42 43 44 45 46 47 48 49 50

000
ASUS43 KMPX 202001
RWRMN
WEATHER ROUNDUP FOR MINNESOTA
NATIONAL WEATHER SERVICE TWIN CITIES/CHANHASSEN MN
200 PM CST MON NOV 20 2017


NOTE: "FAIR" INDICATES FEW OR NO CLOUDS BELOW 12,000 FEET WITH NO
SIGNIFICANT WEATHER AND/OR OBSTRUCTIONS TO VISIBILITY. N/A MEANS
CURRENT SKY AND/OR WEATHER CONDITIONS ARE NOT AVAILABLE.

MNZ060>063-068>070-202100-
   Twin Cities Metro

CITY           SKY/WX    TMP DP  RH WIND       PRES   REMARKS
TWIN CITIES    CLOUDY    45  30  55 S7        29.46F
ST PAUL        CLOUDY    45  30  55 S8        29.48F
CRYSTAL        CLOUDY    43  27  53 S9        29.44F
BLAINE         CLOUDY    45  30  57 S14       29.44F
LAKEVILLE      CLOUDY    45  30  57 S5        29.47F
EDEN PRAIRIE   CLOUDY    45  29  53 S13       29.44F
SOUTH ST PAUL  CLOUDY    46  30  54 S8        29.47F
LAKE ELMO      FAIR      45  32  61 S9        29.47F
$$
MNZ001>005-007-008-013>017-022>024-027-028-202100-
   Northwest Minnesota

CITY           SKY/WX    TMP DP  RH WIND       PRES   REMARKS
BEMIDJI        CLOUDY    43  25  48 SW8       29.28F
HALLOCK        CLOUDY    36  30  80 S10       29.21S
ROSEAU         CLOUDY    37  30  75 S13       29.19F
WARROAD        CLOUDY    37  30  75 SW7       29.20F
CROOKSTON      CLOUDY    43  28  56 SW13G21   29.29F
FOSSTON        CLOUDY    37  27  65 SW13      29.30F
DETROIT LAKES  CLOUDY    43  27  52 SW7       29.34F
MOORHEAD       CLOUDY    48  25  40 W9        29.35F
PARK RAPIDS    CLOUDY    44  26  49 SW12      29.32F
MAHNOMEN       FAIR      40  26  57 SW10      29.32F
$$
MNZ006-009>011-018-025>026-202100-
   North Central Minnesota

CITY           SKY/WX    TMP DP  RH WIND       PRES   REMARKS
BAUDETTE       CLOUDY    40  27  59 SW8       29.21F
FLAG ISLAND    CLOUDY    36  27  69 SW12      29.18F
INTL FALLS     CLOUDY    41  25  53 S7        29.23F
WASKISH        CLOUDY    41  27  56 SW8       29.24F
BIG FORK       CLOUDY    41  28  60 S5        29.29F
LONGVILLE      CLOUDY    45  27  49 SW7       29.31F
GRAND RAPIDS   CLOUDY    41  27  57 S9        29.33F
CRANE LAKE     CLOUDY    37  27  65 S6        29.31F
ORR            CLOUDY    39  25  56 S8        29.27F
COOK           CLOUDY    39  27  60 S6        29.31F
WALKER         FAIR      43  26  50 SW12      29.30F
$$
MNZ012-019>021-037-202100-
   Northeast Minnesota

CITY           SKY/WX    TMP DP  RH WIND       PRES   REMARKS
DULUTH         CLOUDY    33  28  81 S8        29.37F WCI  26
ELY            CLOUDY    37  27  65 S5        29.32F
HIBBING        CLOUDY    40  26  57 S7        29.32F
EVELETH        CLOUDY    39  25  56 S12G17    29.33F
DULUTH HARBOR  CLOUDY    36  30  80 NE5       29.41F
TWO HARBORS    CLOUDY    37  30  75 E3        29.37F
SILVER BAY     CLOUDY    34  28  80 E3        29.38F
GRAND MARAIS     N/A     36  30  79 E5        29.43F
G MARAIS ARPRT CLOUDY    28  25  86 SE6       29.38F FOG     WCI  22
$$
MNZ029>031-032-039>041-046>048-054>057-064-202100-
   West Central Minnesota

CITY           SKY/WX    TMP DP  RH WIND       PRES   REMARKS
FERGUS FALLS   CLOUDY    46  28  49 W8        29.39F
WHEATON        CLOUDY    54  19  26 W12G17    29.41R
MORRIS         CLOUDY    46  28  49 SW7       29.39F
ALEXANDRIA     CLOUDY    43  28  55 SW10      29.40S
ELBOW LAKE     FAIR      46  29  52 SW8       29.40R
WADENA         CLOUDY    45  27  49 W15       29.35F
GLENWOOD       CLOUDY    41  30  65 SW12      29.40S
APPLETON       CLOUDY    54  25  32 SW10      29.40F
BENSON         CLOUDY    45  28  53 CALM      29.43R
ORTONVILLE     CLOUDY    52  27  37 MISG      29.41S
MADISON        CLOUDY    55  27  33 W10       29.41F
WILLMAR        FAIR      45  34  65 SW5       29.43S
$$
MNZ033>034-036-042>043-049>051-058-059-202100-
   Central Minnesota

CITY           SKY/WX    TMP DP  RH WIND       PRES   REMARKS
ST CLOUD       CLOUDY    38  29  70 S10       29.41F
SAUK CENTRE    FAIR      39  30  69 S9        29.39F
PAYNESVILLE    CLOUDY    41  32  70 S9        29.41S
AITKIN         CLOUDY    39  28  65 S7        29.34F
PINE RIVER     CLOUDY    43  27  52 SW7       29.38F
BRAINERD       CLOUDY    40  27  59 SW12      29.37S
STAPLES        CLOUDY    41  27  56 SW7       29.36F
LONG PRAIRIE   FAIR      37  30  75 S8        29.39R
LITTLE FALLS   CLOUDY    37  25  60 S8        29.40S
LITCHFIELD     CLOUDY    45  32  61 SW5       29.43F
BUFFALO        CLOUDY    40  28  63 S9        29.44F
MAPLE LAKE     CLOUDY    40  31  70 S7        29.44F
HUTCHINSON     CLOUDY    46  33  60 S8        29.44F
$$
MNZ037-044-045-052-053-202100-
   East Central Minnesota

CITY           SKY/WX    TMP DP  RH WIND       PRES   REMARKS
PRINCETON      CLOUDY    39  28  65 S9        29.42F
MORA           CLOUDY    37  28  70 S13       29.43S
CAMBRIDGE      CLOUDY    43  28  56 S9        29.42F
RUSH CITY      CLOUDY    40  29  66 S9        29.43S
MOOSE LAKE     CLOUDY    37  30  75 S9        29.37S
HINCKLEY       FAIR      37  32  81 S13       29.42R
CLOQUET        CLOUDY    34  27  75 CALM      29.37F
MCGREGOR       CLOUDY    43  28  56 S10       29.35F
$$
MNZ071>073-080-081-089-090-097-098-202100-
   Southwest Minnesota

CITY           SKY/WX    TMP DP  RH WIND       PRES   REMARKS
MONTEVIDEO     CLOUDY    46  28  49 W7        29.42S
GRANITE FALLS  CLOUDY    51  30  44 S8        29.44F HAZE
CANBY          CLOUDY    53  26  35 SW13G23   29.44F
MARSHALL       MOSUNNY   51  27  39 W13       29.45S
REDWOOD FALLS  SUNNY     49  26  41 SW12      29.45F
OLIVIA         CLOUDY    50  30  46 SW14      29.42F
PIPESTONE      CLOUDY    46  27  46 W10       29.49R
WINDOM         CLOUDY    46  27  46 SW15      29.48S
WORTHINGTON    CLOUDY    45  25  45 SW21G26   29.49S
JACKSON        CLOUDY    46  27  46 SW16      29.50R
SLAYTON        CLOUDY    47  27  45 SW14      29.48F
$$
MNZ065>067-074>077-082>085-091>093-202100-
   South Central Minnesota

CITY           SKY/WX    TMP DP  RH WIND       PRES   REMARKS
MANKATO        CLOUDY    47  31  53 S8        29.48F
NEW ULM        MOSUNNY   48  27  43 SW8       29.47S
ST JAMES       CLOUDY    48  28  46 S10       29.49S
FAIRMONT       CLOUDY    49  30  48 SW17      29.49F
GLENCOE        MOSUNNY   45  32  61 S8        29.44F
FARIBAULT      MOSUNNY   46  32  57 S13       29.49F
OWATONNA       CLOUDY    48  34  57 SW13G18   29.50F
WASECA         CLOUDY    46  32  57 SW12      29.51S
ALBERT LEA     PTSUNNY   52  27  37 SW14G22   29.51R
$$
MNZ078>079-086>088-094>096-202100-
   Southeast Minnesota

CITY           SKY/WX    TMP DP  RH WIND       PRES   REMARKS
ROCHESTER      CLOUDY    48  33  56 S21G31    29.51S
RED WING       CLOUDY    48  27  43 SW9       29.50R
STANTON        CLOUDY    48  32  53 SW17      29.47F
DODGE CENTER   CLOUDY    48  30  49 S16       29.50S
WINONA         CLOUDY    52  32  46 SW7       29.53S
AUSTIN         PTSUNNY   50  32  50 SW14      29.51F
PRESTON        CLOUDY    48  31  51 S18G25    29.52F
$$
ABBREVIATIONS USED IN REMARKS
   TC - TEMPERATURES IN CELSIUS
  WCI - WIND CHILL INDEX
   HX - HEAT INDEX
  VSB - VISIBILITY
$$




USA.gov is the U.S. government's official web portal to all federal, state and local government web resources and services.